SCP
0 0 0 0 0 0 0 0 0 0 0 0 0 0 0 0 0 0 0 0 0 0 0 0 0 0 0 0 0 0 0 0 0 0 0 0 0 0 0 0 0 0 0
0 0 0 0 0 0 0 0 0 0 0 0 0 0 0 0 0 0 0 0 0 0 0 0 0 0 0 0 0 0 0 0 0 0 0 0 0 0 0 0 0 0 0
1 1 0 0 0 0 0 0 0 0 0 0 0 0 0 0 0 0 0 0 0 0 0 0 0 0 0 0 0 0 0 0 0 0 0 0 0 0 0 0 0 0 0
1 0 0 0 1 0 0 0 0 0 0 0 0 0 0 0 0 0 0 0 0 0 0 0 0 0 0 0 0 0 0 0 0 0 0 0 0 0 0 0 0 0 0
0 0 0 1 0 0 0 0 0 0 0 0 0 0 0 0 0 0 0 0 0 0 0 0 0 0 0 0 0 0 0 0 0 0 0 0 0 0 0 0 0 0 0
0 0 0 0 0 0 0 0 0 0 0 0 0 0 0 0 0 0 0 0 0 0 0 0 0 0 0 0 0 0 0 0 0 0 0 0 0 0 0 0 0 0 0
0 0 0 0 0 0 0 0 0 0 0 0 0 0 0 0 0 0 0 0 0 0 0 0 0 0 0 0 0 0 0 0 0 0 0 0 0 0 0 0 0 0 0
0 0 0 0 0 0 0 0 0 0 0 0 0 0 0 0 0 0 0 0 0 0 0 0 0 0 0 0 0 0 0 0 0 0 0 0 0 0 0 0 0 0 0
1 1 1 0 0 0 0 0 0 0 0 0 0 0 0 0 0 0 0 0 0 0 0 0 0 0 0 0 0 0 0 0 0 0 0 0 0 0 0 0 0 0 0
1 1 1 1 0 0 0 0 0 0 0 0 0 0 0 0 0 0 0 0 0 0 0 0 0 0 0 0 0 0 0 0 0 0 0 0 0 0 0 0 0 0 0
1 1 1 1 1 0 0 0 0 0 0 0 0 0 0 0 0 0 0 0 0 0 0 0 0 0 0 0 0 0 0 0 0 0 0 0 0 0 0 0 0 0 0
1 1 1 1 1 1 0 0 0 0 0 0 0 0 0 0 0 0 0 0 0 0 0 0 0 0 0 0 0 0 0 0 0 0 0 0 0 0 0 0 0 0 0
1 1 1 1 1 1 1 1 1 1 1 1 0 0 0 0 0 0 0 0 0 0 0 0 0 0 0 0 0 0 0 0 0 0 0 0 0 0 0 0 0 0 0
1 1 1 1 1 1 1 1 1 1 1 1 1 1 1 1 0 0 0 0 0 0 0 0 0 0 0 0 0 0 0 0 0 0 0 0 0 0 0 0 0 0 0
1 1 1 1 1 1 1 1 1 1 1 1 1 1 1 1 1 1 0 0 0 0 0 0 0 0 0 0 0 0 0 0 0 0 0 0 0 0 0 0 0 0 0
1 1 1 1 1 1 1 1 1 1 1 1 1 1 1 1 1 1 1 0 0 0 0 0 0 0 0 0 0 0 0 0 0 0 0 0 0 0 0 0 0 0 0
1 1 1 1 1 1 0 0 0 0 0 0 0 0 0 0 1 1 1 0 0 0 0 0 0 0 0 0 0 0 0 0 0 0 0 0 0 0 0 0 0 0 0
1 1 1 0 0 0 0 0 0 0 0 0 0 0 0 0 0 0 0 0 0 0 0 0 0 0 0 0 0 0 0 0 0 0 0 0 0 0 0 0 0 0 0
1 1 0 0 0 0 0 0 0 0 0 0 0 0 0 0 0 0 0 0 0 0 0 0 0 0 0 0 0 0 0 0 0 0 0 0 0 0 -0 -0 -0 -0 -0
1 1 0 0 0 0 0 0 0 0 0 0 0 0 0 0 0 0 0 0 0 0 0 0 0 0 0 0 0 0 0 0 0 0 0 0 0 0 0 0 -0 -0 -0
1 1 0 0 0 0 0 0 0 0 0 0 0 0 0 0 0 0 0 0 0 0 0 0 0 0 0 0 0 0 0 0 0 0 0 0 0 0 0 0 0 0 -0
1 1 0 0 0 0 0 0 0 0 0 0 0 0 0 0 0 0 0 0 0 0 0 0 0 0 0 0 0 0 0 0 0 0 0 0 0 0 0 0 0 0 0
1 1 0 0 0 0 0 0 0 0 0 0 0 0 0 0 0 0 0 0 0 0 0 0 0 0 0 0 0 0 0 0 0 0 0 0 0 0 0 0 0 0 0
1 1 1 1 0 0 0 0 0 0 0 0 0 0 0 0 0 0 0 0 0 0 0 0 0 0 0 0 0 0 0 0 0 0 0 0 0 0 0 0 0 0 0
1 1 1 1 0 0 0 0 0 0 0 0 0 0 0 0 0 0 0 0 0 0 0 0 0 0 0 0 0 0 0 0 0 0 0 0 0 0 0 0 0 0 0
1 1 1 1 1 0 0 0 0 0 0 0 0 0 0 0 0 0 0 0 0 0 0 0 0 0 0 0 0 0 0 0 0 0 0 0 0 0 0 0 0 0 0
Wind_Speed
1 2 1 1 1 1 1 1 1 2 1 1 1 1 2 3 3 3 3 8 9 9 9 8 8 7 8 8 8 7 6 6 6 6 5 4 4 5 5 5 5 5 5
2 2 2 1 1 1 1 1 1 1 1 1 1 1 2 3 3 3 3 5 8 8 8 8 8 7 8 8 8 7 7 7 6 6 6 5 4 5 5 5 6 7 6
2 2 2 1 1 1 1 1 1 1 1 2 2 1 1 2 3 3 3 3 4 7 8 8 7 7 8 8 8 8 7 7 6 6 6 6 5 5 5 6 6 6 6
3 1 1 1 0 1 1 1 1 1 1 1 1 1 1 2 2 3 3 3 3 4 6 7 7 7 7 7 7 7 7 6 6 6 6 6 6 6 6 5 5 6 7
3 1 1 1 1 1 1 1 2 1 1 1 0 1 1 1 2 2 2 3 3 4 4 7 7 7 7 7 7 7 6 6 6 6 6 6 6 6 6 6 6 6 7
2 1 1 1 1 2 1 1 1 0 0 1 1 1 1 1 2 2 2 2 2 3 4 5 5 5 7 7 7 7 7 6 6 5 5 5 5 6 6 7 7 7 7
2 1 1 1 1 1 1 1 1 0 1 1 1 0 0 2 2 2 2 2 2 2 3 4 4 3 4 6 6 6 6 6 6 6 6 5 5 5 5 7 7 7 7
1 2 2 1 2 1 1 1 0 1 1 1 1 1 1 1 1 2 2 2 2 2 3 4 3 3 4 4 4 7 6 5 6 6 5 5 5 5 5 5 6 7 7
2 2 2 1 1 1 1 0 1 1 1 1 1 0 0 1 1 1 2 2 2 2 2 2 3 3 4 3 4 5 5 4 5 6 5 5 4 4 4 4 5 6 6
2 2 1 1 1 1 1 1 0 1 1 1 1 1 1 0 1 1 1 2 3 2 2 2 2 3 3 3 4 5 6 5 5 5 5 5 4 4 4 5 5 5 6
2 2 2 1 1 1 1 1 1 1 0 1 1 1 1 1 1 1 1 1 1 2 2 2 2 3 3 3 3 4 6 5 5 5 4 4 4 4 5 5 5 5 5
2 2 2 2 1 1 1 0 0 0 1 1 2 1 1 1 1 0 1 1 2 1 2 2 2 2 3 3 4 5 6 6 5 4 4 4 4 4 4 5 5 5 5
2 2 2 2 1 1 1 1 1 1 0 1 1 1 1 1 1 1 0 1 1 1 1 1 1 2 2 3 3 6 6 7 5 5 4 3 3 3 4 4 4 5 4
2 2 2 2 2 2 2 1 1 1 0 1 1 1 1 1 1 1 0 1 1 1 1 1 1 2 1 2 4 6 5 7 6 6 5 4 3 3 3 3 3 3 2
2 3 3 2 2 2 1 1 1 1 0 1 1 1 1 1 1 1 1 1 1 1 1 1 1 2 2 2 5 4 4 7 8 6 5 4 3 3 3 3 3 3 2
1 2 2 2 2 2 1 1 1 1 1 0 0 1 2 1 1 1 1 1 1 1 1 1 1 1 2 3 5 3 3 7 8 7 6 5 4 3 4 4 3 3 3
1 1 1 1 1 1 1 1 1 1 1 1 1 1 1 1 1 2 1 1 1 1 0 1 0 0 1 2 3 2 3 4 4 7 7 6 5 4 4 4 4 3 3
1 1 1 2 2 2 1 1 2 1 1 0 1 1 1 1 1 2 2 2 1 1 0 1 1 0 1 2 2 3 3 3 3 6 8 7 6 6 5 4 4 4 4
2 1 1 1 1 1 1 1 1 1 0 0 0 1 1 1 1 1 2 1 1 1 1 1 1 1 1 1 1 2 1 1 2 4 7 7 6 6 6 5 5 4 4
2 2 2 1 1 1 1 0 0 0 0 0 0 0 1 1 0 1 1 1 2 2 1 1 1 1 1 1 1 1 1 0 0 1 3 4 5 6 6 6 6 5 5
2 2 1 1 1 1 1 0 1 1 1 0 1 0 1 1 1 1 1 1 1 1 1 1 1 0 1 1 1 1 1 1 1 1 1 2 3 3 3 4 5 6 6
2 2 2 2 1 1 1 2 1 1 1 1 1 1 1 1 2 2 1 1 1 2 1 1 1 1 1 2 1 2 1 1 1 1 1 2 2 3 3 3 6 8 8
2 2 2 2 2 1 1 1 1 1 1 1 1 1 2 1 1 1 2 3 2 3 3 2 2 3 2 2 2 2 2 2 2 2 2 2 2 2 2 2 7 8 8
2 2 2 2 2 2 2 2 0 1 1 1 2 2 1 1 2 1 2 2 2 2 3 3 2 3 2 2 2 3 3 2 3 2 2 2 1 1 1 2 6 7 7
2 2 2 2 2 2 2 2 1 2 1 2 2 1 1 1 1 2 2 2 2 2 2 2 2 3 4 4 3 2 2 2 3 2 1 1 1 1 1 1 3 6 7
3 3 2 2 2 3 3 3 2 2 2 1 1 1 1 0 0 0 2 3 3 2 2 2 3 4 5 5 5 4 3 3 2 2 1 1 1 1 1 1 2 3 4
Wind_Direction
127 128 115 114 124 128 149 168 172 145 149 183 159 105 101 101 110 114 126 147 154 154 158 163 167 168 170 169 168 169 170 173 175 176 177 179 186 197 197 192 188 190 193
92 92 92 74 71 80 100 126 120 119 142 111 84 82 102 106 113 124 132 145 153 158 162 165 170 175 175 176 174 176 178 181 183 182 181 184 186 190 198 200 202 201 200
83 87 88 83 80 111 135 107 129 145 160 145 141 134 122 116 121 129 138 146 152 160 162 165 168 172 175 176 179 180 181 185 190 191 190 191 190 192 199 207 211 207 202
76 66 92 81 88 90 78 123 113 103 78 82 122 138 112 120 134 143 141 149 153 160 161 162 163 168 170 174 173 177 180 188 192 193 194 197 196 199 201 206 210 208 206
82 69 63 66 63 83 57 48 72 57 53 28 163 157 140 146 139 147 136 151 157 159 161 165 171 173 177 182 182 184 187 189 192 196 202 203 202 203 204 207 208 209 211
98 101 91 63 51 65 48 41 91 111 262 269 264 115 138 145 136 149 155 144 160 167 163 163 172 181 187 190 190 190 192 192 194 198 205 207 207 209 208 207 210 212 213
119 98 85 83 70 73 47 33 29 240 232 245 265 136 167 147 157 148 150 160 173 166 162 156 168 173 172 188 197 196 199 199 199 204 210 213 212 211 211 213 213 217 219
112 123 103 97 77 84 73 43 36 306 281 237 229 211 152 130 202 177 166 175 174 181 174 171 165 161 161 164 185 196 200 199 202 204 207 213 216 214 218 221 221 221 224
115 75 97 97 103 120 92 48 345 265 281 298 285 265 157 159 180 163 180 178 159 178 184 162 158 161 167 154 163 180 181 189 199 206 206 207 207 211 223 231 233 233 231
137 122 117 99 95 78 87 231 130 280 267 286 295 261 237 188 187 149 185 175 174 180 174 164 160 161 164 151 149 158 171 181 194 207 208 208 210 218 229 237 240 243 241
152 142 147 136 136 117 79 19 30 335 324 303 307 296 298 261 247 163 168 161 170 174 175 173 165 162 162 152 149 152 165 173 182 195 204 208 213 226 236 240 240 247 248
165 153 154 157 174 161 169 195 322 324 1 341 332 330 323 329 316 245 183 179 175 187 176 166 166 164 168 153 156 149 160 166 173 183 193 203 216 232 243 243 243 245 244
166 156 159 168 180 190 210 185 183 272 314 314 317 313 323 307 312 329 319 279 193 182 161 173 165 153 162 143 144 153 159 166 175 184 191 199 213 233 246 243 238 236 238
157 157 169 179 195 213 221 196 204 206 219 284 293 300 299 304 308 309 251 278 285 214 166 185 145 140 144 140 148 160 157 167 171 178 184 191 208 227 233 228 220 210 207
181 171 184 191 206 222 224 220 203 250 249 257 274 287 288 273 284 299 304 275 228 232 251 211 166 143 150 132 147 159 159 172 176 181 186 192 206 221 219 212 198 180 162
143 166 189 191 203 208 208 215 223 203 198 242 274 312 306 298 294 293 293 306 291 229 224 242 210 161 162 159 154 163 163 172 182 185 186 187 190 193 183 173 167 165 163
145 178 189 199 198 201 212 209 234 242 210 252 264 239 270 316 326 315 318 311 307 308 189 256 246 110 150 144 144 163 167 169 178 192 192 188 182 177 170 169 172 172 166
167 181 202 209 207 197 198 219 233 248 206 247 309 319 289 276 298 318 327 324 313 305 238 229 226 202 180 160 173 190 185 177 170 178 183 182 179 179 179 178 179 182 178
180 185 215 223 212 197 207 236 238 242 191 148 257 273 288 315 332 331 315 320 321 323 315 249 237 211 237 203 193 220 193 158 186 164 174 182 185 185 185 185 186 187 185
173 188 211 214 210 207 229 242 218 103 298 144 239 269 350 3 355 306 306 328 319 319 308 293 239 225 251 239 197 222 237 186 216 187 165 170 183 190 190 190 191 188 190
188 185 202 233 235 216 206 115 222 202 206 262 294 19 35 63 49 351 304 315 309 288 283 280 264 294 294 275 241 254 237 189 220 215 158 184 179 186 195 199 197 190 187
191 190 199 208 219 241 90 72 26 281 259 249 257 251 188 190 158 173 204 230 262 259 274 285 286 275 273 286 261 256 250 238 241 212 188 224 180 181 193 193 188 184 187
189 205 188 186 178 129 112 93 40 268 257 259 271 283 277 251 213 208 217 229 235 236 231 244 264 272 263 270 279 264 244 244 245 229 203 232 206 196 197 183 172 183 186
196 203 201 199 175 159 146 121 138 256 243 247 248 249 262 299 307 318 276 252 238 246 236 224 243 271 264 258 255 264 254 245 242 238 198 218 227 204 182 151 178 182 186
202 203 198 198 179 158 168 166 196 234 243 250 248 260 239 239 337 333 289 272 260 254 253 227 219 243 255 264 264 271 270 248 253 234 201 192 206 221 191 175 174 178 183
202 205 195 194 191 160 166 169 189 239 243 247 222 197 138 183 161 268 282 286 276 280 286 275 257 252 245 244 235 221 238 249 261 257 214 188 206 188 206 198 167 178 194